Weather History for KFWN - January, 2014

Change the Weather History Date:

Sunday, January 5, 2014

  Actual Average Record
Temperature  
Mean Temperature 16 °F -  
Max Temperature 34 °F 36 °F 62 °F (1950)
Min Temperature -2 °F 15 °F -16 °F (1981)
Degree Days  
Heating Degree Days 49    
Moisture  
Dew Point 21 °F    
Average Humidity 89    
Maximum Humidity 100    
Minimum Humidity 61    
Precipitation  
Precipitation 0.16 in - - ()
Sea Level Pressure  
Sea Level Pressure 30.07 in    
Wind  
Wind Speed 2 mph (ENE)    
Max Wind Speed 7 mph    
Max Gust Speed -    
Visibility 4 miles    
Events Rain    
Averages and records for this station are not official NWS values.
T = Trace of Precipitation, MM = Missing Value Source: NWS Daily Summary

Daily Weather History Graph

Daily Weather History Graph

Search for Another Location

Airport or City:

Trip Planner

Search our weather history database for the weather conditions in past years. The results will help you decide how hot, cold, wet, or windy it might be!

Date:

Astronomy

Jan. 05, 2014 Rise Set
Actual Time 7:24 AM EST 4:43 PM EST
Civil Twilight 6:53 AM EST 5:14 PM EST
Nautical Twilight 6:18 AM EST 5:49 PM EST
Astronomical Twilight 5:45 AM EST 6:22 PM EST
Moon 10:01 AM EST (1/5) 10:12 PM EST (1/5)
Length of Visible Light 10h 21m
Length of Day
9h 19m
Waxing Crescent, 24% of the Moon is Illuminated
Jan 5
Waxing Crescent
Jan 7
First Quarter
Jan 15
Full
Jan 24
Last Quarter
Jan 30
New

Hourly Weather History & Observations

Time (EST) Temp. Windchill Dew Point Humidity Pressure Visibility Wind Dir Wind Speed Gust Speed Precip Events Conditions
12:53 AM 1.9 °F - -2.0 °F 83% 30.27 in 7.0 mi Calm Calm - N/A   Clear
1:53 AM 1.0 °F - -2.9 °F 83% 30.27 in 8.0 mi Calm Calm - N/A   Clear
2:53 AM 1.0 °F -8.7 °F -2.9 °F 83% 30.27 in 9.0 mi WSW 4.6 mph - N/A   Clear
3:53 AM -2.0 °F - -5.1 °F 87% 30.27 in 10.0 mi Calm Calm - N/A   Clear
4:53 AM -0.9 °F -8.9 °F -5.1 °F 83% 30.28 in 9.0 mi West 3.5 mph - N/A   Clear
5:53 AM -2.0 °F - -4.0 °F 91% 30.28 in 8.0 mi Calm Calm - N/A   Clear
6:53 AM -2.0 °F - -5.1 °F 87% 30.27 in 8.0 mi Calm Calm - N/A   Clear
7:53 AM -0.9 °F - -5.1 °F 83% 30.27 in 6.0 mi Calm Calm - N/A   Clear
8:53 AM 3.9 °F - 3.0 °F 96% 30.30 in 8.0 mi Calm Calm - N/A   Clear
9:53 AM 8.1 °F - 5.0 °F 87% 30.30 in 7.0 mi Calm Calm - N/A   Mostly Cloudy
10:53 AM 17.1 °F - 10.9 °F 77% 30.27 in 9.0 mi Calm Calm - N/A   Mostly Cloudy
11:53 AM 23.0 °F - 14.0 °F 68% 30.23 in 9.0 mi Calm Calm - N/A   Mostly Cloudy
12:18 PM 26.1 °F - 16.0 °F 66% 30.18 in 10.0 mi Calm Calm - N/A   Overcast
12:48 PM 28.4 °F - 17.6 °F 64% 30.17 in 10.0 mi Calm Calm - N/A   Overcast
12:53 PM 28.9 °F - 17.1 °F 61% 30.19 in 10.0 mi Calm Calm - N/A   Overcast
1:53 PM 30.0 °F 26.5 °F 18.0 °F 61% 30.17 in 10.0 mi ENE 3.5 mph - 0.00 in   Overcast
2:53 PM 30.0 °F 25.2 °F 21.0 °F 69% 30.16 in 5.0 mi East 4.6 mph - N/A   Haze
3:12 PM 28.9 °F 22.8 °F 23.0 °F 78% 30.13 in 1.8 mi East 5.8 mph - 0.00 in   Overcast
3:34 PM 28.0 °F 20.8 °F 25.0 °F 88% 30.13 in 2.0 mi ENE 6.9 mph - 0.01 in   Overcast
3:42 PM 28.0 °F 20.8 °F 25.0 °F 88% 30.12 in 1.5 mi ENE 6.9 mph - 0.01 in Rain Light Freezing Rain
3:53 PM 28.0 °F 21.7 °F 26.1 °F 92% 30.14 in 1.8 mi ENE 5.8 mph - 0.01 in Rain Light Freezing Rain
4:07 PM 28.9 °F 22.8 °F 27.0 °F 92% 30.11 in 2.5 mi ENE 5.8 mph - 0.00 in Rain Light Freezing Rain
4:14 PM 28.9 °F 21.9 °F 26.1 °F 89% 30.11 in 4.0 mi ENE 6.9 mph - 0.00 in Rain Light Freezing Rain
4:22 PM 28.9 °F 23.9 °F 26.1 °F 89% 30.12 in 6.0 mi ENE 4.6 mph - 0.00 in   Overcast
4:32 PM 28.9 °F 22.8 °F 26.1 °F 89% 30.11 in 3.0 mi ENE 5.8 mph - 0.01 in Rain Light Freezing Rain
4:53 PM 28.9 °F 23.9 °F 27.0 °F 92% 30.13 in 7.0 mi ENE 4.6 mph - 0.01 in   Overcast
5:22 PM 28.9 °F 23.9 °F 27.0 °F 92% 30.08 in 4.0 mi ENE 4.6 mph - 0.00 in   Overcast
5:53 PM 28.9 °F 22.8 °F 28.0 °F 96% 30.10 in 2.5 mi NE 5.8 mph - 0.00 in   Overcast
6:04 PM 28.9 °F 23.9 °F 28.0 °F 96% 30.07 in 1.8 mi ENE 4.6 mph - N/A   Overcast
6:32 PM 28.9 °F - 28.9 °F 100% 30.05 in 1.2 mi Calm Calm - N/A   Overcast
6:53 PM 28.9 °F 25.2 °F 28.9 °F 100% 30.05 in 1.0 mi NE 3.5 mph - N/A   Overcast
7:04 PM 28.9 °F - 28.9 °F 100% 30.02 in 0.8 mi Calm Calm - N/A   Overcast
7:53 PM 30.0 °F - 30.0 °F 100% 30.01 in 0.8 mi Calm Calm - N/A   Overcast
7:59 PM 30.9 °F 27.5 °F 30.0 °F 96% 29.98 in 1.0 mi ENE 3.5 mph - 0.00 in Rain Light Freezing Rain
8:11 PM 30.9 °F 27.5 °F 30.0 °F 96% 29.98 in 1.0 mi NE 3.5 mph - 0.00 in   Overcast
8:21 PM 30.9 °F - 30.0 °F 96% 29.97 in 1.0 mi Calm Calm - 0.00 in Rain Light Freezing Rain
8:53 PM 32.0 °F - 30.9 °F 96% 29.97 in 1.2 mi Calm Calm - 0.01 in Rain Light Freezing Rain
9:06 PM 32.0 °F 27.5 °F 30.0 °F 92% 29.93 in 1.5 mi ENE 4.6 mph - 0.01 in   Overcast
9:34 PM 32.0 °F - 32.0 °F 100% 29.90 in 1.2 mi Calm Calm - 0.01 in   Overcast
9:53 PM 32.0 °F 28.7 °F 32.0 °F 100% 29.89 in 1.2 mi NE 3.5 mph - 0.01 in   Overcast
10:22 PM 32.0 °F 26.4 °F 30.9 °F 96% 29.83 in 0.8 mi East 5.8 mph - N/A   Overcast
10:34 PM 32.0 °F 27.5 °F 30.9 °F 96% 29.81 in 1.0 mi East 4.6 mph - N/A   Overcast
10:53 PM 32.0 °F 27.5 °F 32.0 °F 100% 29.79 in 1.0 mi NE 4.6 mph - 0.01 in   Overcast
11:38 PM 34.0 °F - 34.0 °F 100% 29.73 in 2.0 mi Calm Calm - 0.08 in Rain Rain
11:45 PM 34.0 °F - 34.0 °F 100% 29.73 in 1.2 mi Calm Calm - 0.11 in Rain Rain
11:48 PM 33.8 °F 30.8 °F 33.8 °F 100% 29.72 in 1.5 mi ENE 3.5 mph - 0.11 in Rain Light Rain
11:53 PM 33.1 °F - 33.1 °F 100% 29.73 in 1.5 mi Calm Calm - 0.11 in Rain Light Rain
11:58 PM 33.1 °F 30.0 °F 33.1 °F 100% 29.70 in 1.2 mi North 3.5 mph - 0.00 in   Overcast